Weather History for Murray, KY

Change the Weather History Date:

Sunday, July 27, 2014

  Actual Average (KPAH) Record (KPAH)
Temperature  
Mean Temperature 83 °F 79 °F  
Max Temperature 91 °F 89 °F 103 °F (1952)
Min Temperature 75 °F 68 °F 48 °F (1962)
Degree Days  
Heating Degree Days 0 0  
Month to date heating degree days 0  
Since 1 June heating degree days 4  
Since 1 July heating degree days 0  
Cooling Degree Days 18 14  
Month to date cooling degree days 378  
Year to date cooling degree days 870  
Since 1 June cooling degree days 698  
Growing Degree Days 33 (Base 50)    
Moisture  
Dew Point 75 °F    
Average Humidity 77    
Maximum Humidity 100    
Minimum Humidity 55    
Precipitation  
Precipitation 0.13 in 0.13 in 1.21 in (1943)
Month to date precipitation 3.93  
Year to date precipitation 29.21  
Snow  
Snow 0.00 in 0.00 in - ()
Month to date snowfall 0.0  
Since 1 June snowfall 0.0  
Since 1 July snowfall 0.0  
Snow Depth -    
Sea Level Pressure  
Sea Level Pressure 29.91 in    
Wind  
Wind Speed 11 mph (WSW)    
Max Wind Speed 18 mph    
Max Gust Speed 25 mph    
Visibility 10 miles    
Events      
T = Trace of Precipitation, MM = Missing Value Source: NWS Daily Summary

Daily Weather History Graph

Daily Weather History Graph

Search for Another Location

Airport:

Trip Planner

Search our weather history database for the weather conditions in past years. The results will help you decide how hot, cold, wet, or windy it might be!

Date:

Astronomy

Jul. 27, 2014 Rise Set
Actual Time 5:55 AM CDT 8:04 PM CDT
Civil Twilight 5:26 AM CDT 8:32 PM CDT
Nautical Twilight 4:51 AM CDT 9:08 PM CDT
Astronomical Twilight 4:12 AM CDT 9:46 PM CDT
Moon 6:39 AM CDT (7/27) 8:17 PM CDT (7/27)
Length of Visible Light 15h 06m
Length of Day
14h 08m
New Moon, 1% of the Moon is Illuminated
Jul 27
New Moon
Aug 3
First Quarter
Aug 10
Full
Aug 17
Last Quarter
Aug 25
New

Hourly Weather History & Observations

Time (CDT) Temp. Heat Index Dew Point Humidity Pressure Visibility Wind Dir Wind Speed Gust Speed Precip Events Conditions
12:15 AM 80.6 °F 86.2 °F 75.2 °F 84% 29.93 in 10.0 mi SSW 9.2 mph - N/A   Unknown
12:35 AM 80.6 °F 86.2 °F 75.2 °F 84% 29.93 in 10.0 mi SSW 11.5 mph 17.3 mph N/A   Clear
12:55 AM 80.6 °F 86.2 °F 75.2 °F 84% 29.93 in 10.0 mi SW 10.4 mph 16.1 mph N/A   Clear
1:15 AM 80.6 °F 86.2 °F 75.2 °F 84% 29.93 in 10.0 mi SW 10.4 mph - N/A   Clear
1:35 AM 80.6 °F 86.2 °F 75.2 °F 84% 29.93 in 10.0 mi SW 9.2 mph - N/A   Clear
1:55 AM 78.8 °F - 75.2 °F 89% 29.93 in 10.0 mi SW 8.1 mph - N/A   Clear
2:15 AM 78.8 °F - 75.2 °F 89% 29.93 in 10.0 mi SW 6.9 mph - N/A   Unknown
2:35 AM 78.8 °F - 75.2 °F 89% 29.93 in 10.0 mi SW 6.9 mph - N/A   Unknown
2:55 AM 77.0 °F - 75.2 °F 94% 29.93 in 10.0 mi SW 6.9 mph - N/A   Clear
3:15 AM 77.0 °F - 75.2 °F 94% 29.92 in 10.0 mi SW 6.9 mph - N/A   Clear
3:35 AM 77.0 °F - 75.2 °F 94% 29.91 in 10.0 mi SW 10.4 mph - N/A   Clear
3:55 AM 77.0 °F - 75.2 °F 94% 29.91 in 10.0 mi SW 8.1 mph - N/A   Unknown
4:15 AM 77.0 °F - 75.2 °F 94% 29.91 in 10.0 mi SW 9.2 mph - N/A   Unknown
4:35 AM 77.0 °F - 75.2 °F 94% 29.90 in 10.0 mi SW 9.2 mph - N/A   Clear
4:55 AM 77.0 °F - 75.2 °F 94% 29.91 in 10.0 mi SW 8.1 mph - N/A   Clear
5:15 AM 77.0 °F - 75.2 °F 94% 29.91 in 10.0 mi WSW 9.2 mph - N/A   Clear
5:35 AM 75.2 °F - 73.4 °F 94% 29.91 in 10.0 mi WSW 10.4 mph - N/A   Clear
5:55 AM 75.2 °F - 73.4 °F 94% 29.91 in 9.0 mi SW 9.2 mph - N/A   Clear
6:15 AM 75.2 °F - 73.4 °F 94% 29.92 in 9.0 mi SW 8.1 mph - N/A   Clear
6:35 AM 75.2 °F - 73.4 °F 94% 29.92 in 10.0 mi SW 9.2 mph - N/A   Clear
6:55 AM 77.0 °F - 73.4 °F 89% 29.92 in 10.0 mi WSW 11.5 mph - N/A   Clear
7:15 AM 77.0 °F - 73.4 °F 89% 29.93 in 10.0 mi WSW 11.5 mph - N/A   Clear
7:35 AM 78.8 °F - 73.4 °F 83% 29.93 in 10.0 mi SW 10.4 mph 17.3 mph N/A   Clear
7:55 AM 80.6 °F 85.4 °F 73.4 °F 79% 29.93 in 10.0 mi WSW 10.4 mph 19.6 mph N/A   Clear
8:15 AM 82.4 °F 88.2 °F 73.4 °F 74% 29.93 in 10.0 mi WSW 16.1 mph 21.9 mph N/A   Clear
8:35 AM 84.2 °F 90.9 °F 73.4 °F 70% 29.93 in 10.0 mi WSW 16.1 mph 23.0 mph N/A   Partly Cloudy
8:55 AM 82.4 °F 88.2 °F 73.4 °F 74% 29.93 in 10.0 mi West 13.8 mph 21.9 mph N/A   Mostly Cloudy
9:15 AM 84.2 °F 90.9 °F 73.4 °F 70% 29.93 in 10.0 mi West 12.7 mph 21.9 mph N/A   Partly Cloudy
9:35 AM 86.0 °F 93.4 °F 73.4 °F 66% 29.93 in 10.0 mi WSW 18.4 mph 24.2 mph N/A   Clear
9:55 AM 86.0 °F 93.4 °F 73.4 °F 66% 29.92 in 10.0 mi WSW 15.0 mph 21.9 mph N/A   Clear
10:15 AM 87.8 °F 95.6 °F 73.4 °F 62% 29.92 in 10.0 mi West 17.3 mph 25.3 mph N/A   Clear
10:35 AM 89.6 °F 98.2 °F 73.4 °F 59% 29.92 in 10.0 mi West 18.4 mph 24.2 mph N/A   Clear
10:55 AM 89.6 °F 98.2 °F 73.4 °F 59% 29.92 in 10.0 mi West 16.1 mph 21.9 mph N/A   Clear
11:15 AM 89.6 °F 98.2 °F 73.4 °F 59% 29.91 in 10.0 mi West 17.3 mph 23.0 mph N/A   Partly Cloudy
11:35 AM 89.6 °F 98.2 °F 73.4 °F 59% 29.91 in 10.0 mi WSW 16.1 mph 21.9 mph N/A   Partly Cloudy
11:55 AM 91.4 °F 100.1 °F 73.4 °F 55% 29.91 in 10.0 mi West 17.3 mph - N/A   Scattered Clouds
12:15 PM 91.4 °F 100.1 °F 73.4 °F 55% 29.91 in 10.0 mi West 12.7 mph 21.9 mph N/A   Scattered Clouds
12:35 PM 89.6 °F 98.2 °F 73.4 °F 59% 29.91 in 10.0 mi West 10.4 mph 17.3 mph N/A   Mostly Cloudy
1:15 PM 91.4 °F 102.5 °F 75.2 °F 59% 29.91 in 10.0 mi WSW 12.7 mph - N/A   Mostly Cloudy
1:35 PM 89.6 °F 99.8 °F 75.2 °F 62% 29.90 in 10.0 mi West 15.0 mph - N/A   Overcast
1:55 PM 89.6 °F 99.8 °F 75.2 °F 62% 29.90 in 10.0 mi West 16.1 mph 21.9 mph N/A   Overcast
2:15 PM 89.6 °F 99.8 °F 75.2 °F 62% 29.90 in 10.0 mi WSW 15.0 mph 19.6 mph N/A   Overcast
2:35 PM 89.6 °F 99.8 °F 75.2 °F 62% 29.89 in 10.0 mi West 16.1 mph 20.7 mph N/A   Overcast
2:55 PM 91.4 °F 102.5 °F 75.2 °F 59% 29.89 in 10.0 mi West 15.0 mph 20.7 mph N/A   Scattered Clouds
3:15 PM 91.4 °F 102.5 °F 75.2 °F 59% 29.88 in 10.0 mi WSW 17.3 mph - N/A   Partly Cloudy
3:35 PM 91.4 °F 102.5 °F 75.2 °F 59% 29.88 in 10.0 mi WSW 16.1 mph 23.0 mph N/A   Mostly Cloudy
3:55 PM 91.4 °F 102.5 °F 75.2 °F 59% 29.88 in 10.0 mi West 17.3 mph 24.2 mph N/A   Mostly Cloudy
4:15 PM 91.4 °F 102.5 °F 75.2 °F 59% 29.87 in 10.0 mi West 15.0 mph 20.7 mph N/A   Partly Cloudy
4:35 PM 91.4 °F 102.5 °F 75.2 °F 59% 29.87 in 10.0 mi WSW 17.3 mph 20.7 mph N/A   Scattered Clouds
4:55 PM 89.6 °F 99.8 °F 75.2 °F 62% 29.87 in 10.0 mi WSW 13.8 mph - N/A   Scattered Clouds
5:15 PM 91.4 °F 105.1 °F 77.0 °F 63% 29.87 in 10.0 mi WSW 15.0 mph 18.4 mph N/A   Partly Cloudy
5:35 PM 89.6 °F 102.2 °F 77.0 °F 66% 29.86 in 10.0 mi WSW 18.4 mph 21.9 mph N/A   Clear
5:55 PM 89.6 °F 102.2 °F 77.0 °F 66% 29.86 in 10.0 mi WSW 15.0 mph - N/A   Clear
6:15 PM 89.6 °F 102.2 °F 77.0 °F 66% 29.86 in 10.0 mi West 15.0 mph 19.6 mph N/A   Clear
6:35 PM 87.8 °F 99.7 °F 77.0 °F 70% 29.87 in 10.0 mi West 15.0 mph 21.9 mph N/A   Scattered Clouds
6:55 PM 86.0 °F 96.9 °F 77.0 °F 74% 29.87 in 6.0 mi West 8.1 mph 18.4 mph N/A   Mostly Cloudy
7:15 PM 82.4 °F 92.4 °F 78.8 °F 89% 29.86 in 1.8 mi Calm Calm - 0.12 in   Overcast
7:35 PM 80.6 °F 88.1 °F 78.8 °F 94% 29.87 in 8.0 mi WNW 9.2 mph 19.6 mph 0.13 in   Overcast
7:55 PM 80.6 °F 89.3 °F 80.6 °F 100% 29.88 in 8.0 mi West 4.6 mph - 0.13 in   Mostly Cloudy
8:15 PM 80.6 °F 89.3 °F 80.6 °F 100% 29.89 in 8.0 mi WNW 4.6 mph - N/A   Mostly Cloudy
8:35 PM 80.6 °F 89.3 °F 80.6 °F 100% 29.89 in 10.0 mi West 4.6 mph - N/A   Mostly Cloudy
8:55 PM 80.6 °F 88.1 °F 78.8 °F 94% 29.89 in 10.0 mi WNW 6.9 mph - N/A   Mostly Cloudy
9:15 PM 78.8 °F - 75.2 °F 89% 29.90 in 10.0 mi WNW 6.9 mph - N/A   Scattered Clouds
9:35 PM 77.0 °F - 73.4 °F 89% 29.91 in 10.0 mi WNW 4.6 mph - N/A   Clear
9:55 PM 77.0 °F - 73.4 °F 89% 29.91 in 10.0 mi WNW 4.6 mph - N/A   Clear
10:15 PM 77.0 °F - 71.6 °F 83% 29.91 in 10.0 mi WNW 9.2 mph - N/A   Clear
10:35 PM 77.0 °F - 69.8 °F 78% 29.92 in 10.0 mi NNW 10.4 mph - N/A   Partly Cloudy
10:55 PM 77.0 °F - 68.0 °F 74% 29.92 in 10.0 mi North 6.9 mph - N/A   Clear
11:15 PM 75.2 °F - 66.2 °F 73% 29.92 in 10.0 mi North 6.9 mph - N/A   Clear